Norfolk, NE

6:39 AM CDT on October 01, 2016 (GMT -0500)
Stefan Memorial

Weather History for KOFK - March, 2014

Change the Weather History Date:

Sunday, March 23, 2014

  Actual Average Record
Temperature  
Mean Temperature 23 °F 40 °F  
Max Temperature 39 °F 52 °F 91 °F (1910)
Min Temperature 7 °F 29 °F 1 °F (1965)
Degree Days  
Heating Degree Days 42 25  
Month to date heating degree days 738 672  
Since 1 July heating degree days 6088 5765  
Cooling Degree Days 0 0  
Month to date cooling degree days 0 0  
Year to date cooling degree days 0 0  
Moisture  
Dew Point 8 °F    
Average Humidity 56    
Maximum Humidity 80    
Minimum Humidity 32    
Precipitation  
Precipitation 0.00 in 0.06 in 1.89 in (1987)
Month to date precipitation 0.34 1.18  
Year to date precipitation 0.90 2.53  
Snow  
Snow 0.00 in 0.20 in - ()
Month to date snowfall 4.0 3.9  
Since 1 July snowfall 15.4 26.7  
Snow Depth 0.00 in    
Sea Level Pressure  
Sea Level Pressure 30.45 in    
Wind  
Wind Speed 6 mph (South)    
Max Wind Speed 18 mph    
Max Gust Speed 24 mph    
Visibility 10 miles    
Events      
T = Trace of Precipitation, MM = Missing Value Source: NWS Daily Summary

Daily Weather History Graph

Daily Weather History Graph

Search for Another Location

Airport or City:

Trip Planner

Search our weather history database for the weather conditions in past years. The results will help you decide how hot, cold, wet, or windy it might be!

Date:

Astronomy

Mar. 23, 2014 Rise Set
Actual Time 7:27 AM CDT 7:45 PM CDT
Civil Twilight 6:59 AM CDT 8:13 PM CDT
Nautical Twilight 6:27 AM CDT 8:46 PM CDT
Astronomical Twilight 5:53 AM CDT 9:19 PM CDT
Moon 2:08 AM CDT (3/23) 12:05 PM CDT (3/23)
Length of Visible Light 13h 13m
Length of Day
12h 17m
Waning Gibbous, 54% of the Moon is Illuminated
Mar 23
Waning Gibbous
Mar 23
Last Quarter
Mar 30
New
Apr 7
First Quarter
Apr 15
Full

Hourly Weather History & Observations

Time (CDT) Temp. Windchill Dew Point Humidity Pressure Visibility Wind Dir Wind Speed Gust Speed Precip Events Conditions
12:56 AM 14.0 °F 6.5 °F 6.1 °F 71% 30.59 in 10.0 mi West 4.6 mph - N/A   Clear
1:56 AM 15.1 °F 9.4 °F 6.1 °F 68% 30.58 in 10.0 mi WSW 3.5 mph - N/A   Clear
2:56 AM 12.9 °F - 6.1 °F 74% 30.58 in 10.0 mi Calm Calm - N/A   Clear
3:56 AM 12.9 °F 6.9 °F 5.0 °F 71% 30.58 in 10.0 mi West 3.5 mph - N/A   Clear
4:56 AM 14.0 °F 8.2 °F 5.0 °F 67% 30.57 in 10.0 mi WSW 3.5 mph - N/A   Clear
5:56 AM 12.0 °F - 5.0 °F 73% 30.57 in 10.0 mi Calm Calm - N/A   Clear
6:56 AM 9.0 °F - 3.9 °F 80% 30.57 in 10.0 mi Calm Calm - N/A   Clear
7:56 AM 8.1 °F -0.5 °F 3.9 °F 83% 30.57 in 10.0 mi SSW 4.6 mph - N/A   Clear
8:56 AM 18.0 °F 12.7 °F 9.0 °F 68% 30.56 in 10.0 mi Variable 3.5 mph - N/A   Clear
9:56 AM 21.0 °F - 10.0 °F 63% 30.55 in 10.0 mi Calm Calm - N/A   Clear
10:56 AM 27.0 °F 23.0 °F 8.1 °F 45% 30.53 in 10.0 mi Variable 3.5 mph - N/A   Clear
11:56 AM 30.0 °F 26.5 °F 7.0 °F 38% 30.51 in 10.0 mi Variable 3.5 mph - N/A   Clear
12:56 PM 32.0 °F 26.4 °F 7.0 °F 35% 30.47 in 10.0 mi Variable 5.8 mph 18.4 mph N/A   Clear
1:56 PM 34.0 °F 26.0 °F 8.1 °F 34% 30.43 in 10.0 mi South 10.4 mph - N/A   Clear
2:56 PM 36.0 °F 27.5 °F 10.0 °F 34% 30.39 in 10.0 mi South 12.7 mph 20.7 mph N/A   Clear
3:56 PM 37.9 °F 30.0 °F 10.9 °F 33% 30.33 in 10.0 mi SSW 12.7 mph 17.3 mph N/A   Clear
4:56 PM 37.9 °F 30.0 °F 12.0 °F 35% 30.31 in 10.0 mi South 12.7 mph 19.6 mph N/A   Overcast
5:56 PM 37.0 °F 29.3 °F 10.9 °F 34% 30.29 in 10.0 mi South 11.5 mph - N/A   Overcast
6:56 PM 37.0 °F 30.4 °F 10.9 °F 34% 30.27 in 10.0 mi SSE 9.2 mph - N/A   Overcast
7:56 PM 36.0 °F 29.6 °F 10.9 °F 36% 30.28 in 10.0 mi SSE 8.1 mph - N/A   Overcast
8:56 PM 35.1 °F 27.9 °F 12.0 °F 39% 30.27 in 10.0 mi SE 9.2 mph - N/A   Overcast
9:56 PM 35.1 °F 30.1 °F 12.9 °F 40% 30.28 in 10.0 mi SE 5.8 mph - N/A   Overcast
10:56 PM 35.1 °F 27.4 °F 12.9 °F 40% 30.28 in 10.0 mi SSE 10.4 mph - N/A   Overcast
11:56 PM 35.1 °F 27.4 °F 12.9 °F 40% 30.27 in 10.0 mi SSE 10.4 mph - N/A   Overcast